EZY12A EGPH-EGKK

Flight info

Callsign EZY12A
Flight time 1h 0m
Altitude 31000
Route GOSAM P600 FENIK L612 NAVSO DCT ADZOP DCT EGTOC DCT KEPAD L151 DISIT
Aircraft A320/M-SDE3FGHIRWY/LB1

Departure

Time 2026-04-25 20:47
Airport Edinburgh Airport (EGPH)

Arrival

Time 2026-04-25 21:48
Airport London Gatwick Airport (EGKK)
Time Latitude Longitude Altitude Speed Heading
2026-04-25 20:05 55.94939 -3.35985 89 ft 0 kts 255°
2026-04-25 20:35 55.94940 -3.35974 112 ft 4 kts 255°
2026-04-25 20:36 55.94947 -3.35931 112 ft 1 kts 255°
2026-04-25 20:36 55.94951 -3.35890 113 ft 4 kts 279°
2026-04-25 20:36 55.94941 -3.35851 113 ft 3 kts 319°
2026-04-25 20:36 55.94938 -3.35847 112 ft 0 kts 321°
2026-04-25 20:39 55.94940 -3.35849 112 ft 2 kts 321°
2026-04-25 20:39 55.95002 -3.35844 114 ft 14 kts 22°
2026-04-25 20:39 55.95078 -3.35947 114 ft 16 kts 299°
2026-04-25 20:39 55.95103 -3.36050 114 ft 12 kts 289°
2026-04-25 20:40 55.95134 -3.36219 114 ft 10 kts 288°
2026-04-25 20:40 55.95121 -3.36322 114 ft 8 kts 238°
2026-04-25 20:40 55.95094 -3.36399 114 ft 7 kts 238°
2026-04-25 20:40 55.95054 -3.36518 114 ft 17 kts 239°
2026-04-25 20:41 55.94986 -3.36715 114 ft 18 kts 238°
2026-04-25 20:41 55.94931 -3.36880 113 ft 14 kts 240°
2026-04-25 20:41 55.94884 -3.37019 114 ft 12 kts 238°
2026-04-25 20:41 55.94842 -3.37140 114 ft 11 kts 238°
2026-04-25 20:42 55.94806 -3.37248 114 ft 9 kts 240°
2026-04-25 20:42 55.94772 -3.37352 113 ft 12 kts 238°
2026-04-25 20:42 55.94715 -3.37515 116 ft 15 kts 239°
2026-04-25 20:42 55.94656 -3.37698 116 ft 18 kts 240°
2026-04-25 20:43 55.94586 -3.37898 113 ft 19 kts 236°
2026-04-25 20:43 55.94526 -3.38070 115 ft 17 kts 238°
2026-04-25 20:43 55.94461 -3.38260 115 ft 17 kts 240°
2026-04-25 20:43 55.94390 -3.38475 115 ft 22 kts 239°
2026-04-25 20:44 55.94317 -3.38693 114 ft 19 kts 239°
2026-04-25 20:44 55.94292 -3.38867 116 ft 13 kts 307°
2026-04-25 20:44 55.94310 -3.38891 114 ft 0 kts 326°
2026-04-25 20:45 55.94327 -3.38911 116 ft 7 kts 326°
2026-04-25 20:45 55.94394 -3.38977 114 ft 13 kts 355°
2026-04-25 20:45 55.94433 -3.38924 114 ft 0 kts 60°
2026-04-25 20:46 55.94487 -3.38766 113 ft 51 kts 58°
2026-04-25 20:47 55.94808 -3.37812 114 ft 127 kts 59°
2026-04-25 20:47 55.95328 -3.36237 480 ft 153 kts 60°
2026-04-25 20:47 55.95880 -3.34594 1346 ft 157 kts 57°
2026-04-25 20:47 55.96684 -3.33125 1875 ft 174 kts 46°
2026-04-25 20:48 55.97763 -3.31875 2138 ft 201 kts 18°
2026-04-25 20:48 55.99222 -3.32160 2433 ft 228 kts 333°
2026-04-25 20:48 56.00377 -3.34274 2725 ft 254 kts 298°
2026-04-25 20:48 56.01040 -3.37284 3406 ft 263 kts 285°
2026-04-25 20:49 56.01489 -3.40445 4385 ft 261 kts 280°
2026-04-25 20:49 56.01614 -3.43626 5294 ft 260 kts 264°
2026-04-25 20:49 56.01350 -3.46810 6183 ft 261 kts 256°
2026-04-25 20:49 56.00859 -3.49967 6962 ft 265 kts 254°
2026-04-25 20:50 56.00390 -3.53151 7804 ft 266 kts 255°
2026-04-25 20:50 55.99936 -3.56383 8543 ft 271 kts 255°
2026-04-25 20:50 55.99478 -3.59672 9307 ft 274 kts 255°
2026-04-25 20:50 55.99014 -3.63004 10067 ft 279 kts 254°
2026-04-25 20:51 55.98536 -3.66408 10590 ft 291 kts 254°
2026-04-25 20:51 55.98017 -3.70056 10765 ft 314 kts 254°
2026-04-25 20:51 55.97454 -3.73975 10907 ft 337 kts 254°
2026-04-25 20:51 55.96838 -3.78108 11279 ft 349 kts 250°
2026-04-25 20:52 55.95722 -3.81957 11860 ft 352 kts 231°
2026-04-25 20:52 55.94599 -3.84044 12290 ft 354 kts 218°
2026-04-25 20:52 55.91669 -3.86564 13160 ft 359 kts 192°
2026-04-25 20:52 55.89171 -3.86708 13789 ft 364 kts 173°
2026-04-25 20:53 55.86661 -3.85872 14400 ft 368 kts 170°
2026-04-25 20:53 55.84131 -3.84973 14950 ft 372 kts 170°
2026-04-25 20:53 55.81581 -3.84055 15499 ft 375 kts 170°
2026-04-25 20:53 55.79004 -3.83123 16062 ft 379 kts 170°
2026-04-25 20:54 55.76440 -3.82199 16601 ft 382 kts 170°
2026-04-25 20:54 55.73814 -3.81261 17164 ft 386 kts 171°
2026-04-25 20:54 55.71169 -3.80323 17672 ft 390 kts 171°
2026-04-25 20:54 55.68485 -3.79379 18190 ft 394 kts 171°
2026-04-25 20:55 55.65769 -3.78429 18703 ft 398 kts 171°
2026-04-25 20:55 55.63033 -3.77474 19172 ft 402 kts 171°
2026-04-25 20:55 55.60310 -3.76526 19637 ft 405 kts 171°
2026-04-25 20:55 55.57530 -3.75558 20102 ft 408 kts 171°
2026-04-25 20:56 55.54726 -3.74583 20561 ft 411 kts 171°
2026-04-25 20:56 55.51907 -3.73600 21003 ft 414 kts 171°
2026-04-25 20:56 55.49074 -3.72609 21427 ft 417 kts 171°
2026-04-25 20:56 55.46249 -3.71622 21835 ft 419 kts 171°
2026-04-25 20:57 55.43366 -3.70622 22232 ft 422 kts 171°
2026-04-25 20:57 55.40472 -3.69625 22647 ft 425 kts 171°
2026-04-25 20:57 55.37551 -3.68622 23052 ft 428 kts 171°
2026-04-25 20:57 55.34622 -3.67616 23448 ft 430 kts 171°
2026-04-25 20:58 55.31670 -3.66597 23823 ft 433 kts 171°
2026-04-25 20:58 55.28734 -3.65586 24141 ft 435 kts 171°
2026-04-25 20:58 55.25754 -3.64559 24463 ft 437 kts 171°
2026-04-25 20:58 55.22766 -3.63528 24775 ft 439 kts 171°
2026-04-25 20:59 55.19759 -3.62492 25086 ft 441 kts 171°
2026-04-25 20:59 55.16742 -3.61461 25370 ft 443 kts 171°
2026-04-25 20:59 55.13712 -3.60428 25671 ft 444 kts 171°
2026-04-25 20:59 55.10675 -3.59395 25971 ft 446 kts 171°
2026-04-25 21:00 55.07622 -3.58356 26258 ft 448 kts 171°
2026-04-25 21:00 55.06587 -3.58003 26355 ft 448 kts 171°
2026-04-25 21:00 54.98396 -3.55221 27095 ft 452 kts 172°
2026-04-25 21:01 54.95305 -3.54178 27217 ft 453 kts 172°
2026-04-25 21:01 54.92205 -3.53135 27257 ft 454 kts 172°
2026-04-25 21:01 54.89134 -3.52101 27252 ft 454 kts 172°
2026-04-25 21:01 54.86023 -3.51050 27253 ft 454 kts 172°
2026-04-25 21:02 54.82920 -3.49999 27251 ft 454 kts 172°
2026-04-25 21:02 54.79822 -3.48954 27253 ft 454 kts 172°
2026-04-25 21:02 54.76709 -3.47908 27252 ft 454 kts 172°
2026-04-25 21:02 54.73607 -3.46870 27254 ft 454 kts 172°
2026-04-25 21:03 54.70502 -3.45836 27254 ft 454 kts 172°
2026-04-25 21:03 54.67392 -3.44806 27248 ft 455 kts 172°
2026-04-25 21:03 54.64305 -3.43782 27249 ft 455 kts 172°
2026-04-25 21:03 54.61164 -3.42738 27249 ft 455 kts 172°
2026-04-25 21:04 54.58047 -3.41702 27246 ft 455 kts 172°
2026-04-25 21:04 54.54936 -3.40672 27244 ft 455 kts 172°
2026-04-25 21:04 54.51826 -3.39644 27245 ft 455 kts 172°
2026-04-25 21:04 54.48752 -3.38629 27239 ft 455 kts 172°
2026-04-25 21:05 54.45639 -3.37601 27246 ft 455 kts 172°
2026-04-25 21:05 54.42530 -3.36570 27229 ft 455 kts 172°
2026-04-25 21:05 54.39415 -3.35535 27228 ft 455 kts 172°
2026-04-25 21:05 54.36296 -3.34502 27227 ft 455 kts 172°
2026-04-25 21:06 54.33183 -3.33478 27229 ft 456 kts 172°
2026-04-25 21:06 54.30056 -3.32459 27231 ft 456 kts 172°
2026-04-25 21:06 54.26933 -3.31447 27232 ft 456 kts 172°
2026-04-25 21:06 54.24871 -3.30775 27229 ft 455 kts 172°
2026-04-25 21:07 54.20754 -3.29434 27237 ft 456 kts 171°
2026-04-25 21:07 54.17629 -3.28418 27241 ft 457 kts 172°
2026-04-25 21:07 54.14503 -3.27402 27242 ft 457 kts 172°
2026-04-25 21:07 54.11380 -3.26383 27242 ft 457 kts 172°
2026-04-25 21:08 54.08253 -3.25368 27242 ft 457 kts 172°
2026-04-25 21:08 54.05127 -3.24357 27242 ft 457 kts 172°
2026-04-25 21:08 54.02043 -3.23362 27242 ft 457 kts 172°
2026-04-25 21:08 53.98952 -3.22016 27237 ft 460 kts 163°
2026-04-25 21:09 53.92952 -3.18137 27227 ft 461 kts 161°
2026-04-25 21:09 53.89947 -3.16198 27226 ft 461 kts 162°
2026-04-25 21:09 53.86946 -3.14274 27227 ft 461 kts 162°
2026-04-25 21:10 53.83948 -3.12349 27226 ft 461 kts 162°
2026-04-25 21:10 53.80929 -3.10410 27222 ft 462 kts 162°
2026-04-25 21:10 53.77958 -3.08505 27219 ft 462 kts 162°
2026-04-25 21:10 53.74941 -3.06572 27220 ft 462 kts 162°
2026-04-25 21:11 53.71930 -3.04647 27219 ft 462 kts 162°
2026-04-25 21:11 53.68915 -3.02724 27203 ft 462 kts 162°
2026-04-25 21:11 53.65901 -3.00806 27205 ft 462 kts 162°
2026-04-25 21:11 53.62935 -2.98920 27209 ft 462 kts 162°
2026-04-25 21:12 53.59914 -2.97004 27211 ft 462 kts 162°
2026-04-25 21:12 53.56898 -2.95092 27212 ft 462 kts 162°
2026-04-25 21:12 53.53889 -2.93183 27213 ft 462 kts 162°
2026-04-25 21:12 53.51890 -2.91916 27214 ft 462 kts 162°
2026-04-25 21:13 53.47903 -2.89398 27213 ft 462 kts 162°
2026-04-25 21:13 53.44886 -2.87498 27212 ft 463 kts 162°
2026-04-25 21:13 53.41867 -2.85599 27232 ft 463 kts 162°
2026-04-25 21:13 53.38844 -2.83700 27234 ft 463 kts 162°
2026-04-25 21:14 53.35824 -2.81805 27234 ft 463 kts 162°
2026-04-25 21:14 53.32809 -2.79913 27217 ft 463 kts 162°
2026-04-25 21:14 53.29789 -2.78019 27214 ft 463 kts 162°
2026-04-25 21:14 53.26813 -2.76157 27216 ft 463 kts 162°
2026-04-25 21:15 53.23789 -2.74273 27216 ft 463 kts 162°
2026-04-25 21:15 53.20769 -2.72397 27207 ft 463 kts 162°
2026-04-25 21:15 53.17734 -2.70514 27206 ft 463 kts 162°
2026-04-25 21:15 53.14753 -2.68668 27205 ft 463 kts 162°
2026-04-25 21:16 53.11735 -2.66807 27207 ft 463 kts 162°
2026-04-25 21:16 53.08704 -2.64938 27206 ft 463 kts 162°
2026-04-25 21:16 53.05676 -2.63072 27204 ft 463 kts 162°
2026-04-25 21:16 53.02647 -2.61207 27204 ft 463 kts 162°
2026-04-25 21:17 52.99628 -2.59350 27206 ft 463 kts 162°
2026-04-25 21:17 52.96603 -2.57491 27190 ft 463 kts 162°
2026-04-25 21:17 52.93616 -2.55650 27191 ft 464 kts 162°
2026-04-25 21:17 52.90574 -2.53774 27193 ft 464 kts 162°
2026-04-25 21:18 52.87540 -2.51905 27199 ft 465 kts 162°
2026-04-25 21:18 52.84499 -2.50042 27197 ft 465 kts 162°
2026-04-25 21:18 52.81530 -2.48056 27195 ft 468 kts 156°
2026-04-25 21:18 52.78694 -2.45381 27196 ft 471 kts 148°
2026-04-25 21:19 52.75973 -2.42361 27198 ft 471 kts 148°
2026-04-25 21:19 52.73232 -2.39329 27190 ft 471 kts 148°
2026-04-25 21:19 52.70540 -2.36355 27193 ft 472 kts 148°
2026-04-25 21:19 52.67810 -2.33349 27195 ft 472 kts 148°
2026-04-25 21:20 52.65074 -2.30344 27195 ft 473 kts 148°
2026-04-25 21:20 52.64146 -2.29327 27196 ft 473 kts 148°
2026-04-25 21:20 52.59585 -2.24339 27198 ft 473 kts 148°
2026-04-25 21:20 52.56840 -2.21342 27200 ft 473 kts 148°
2026-04-25 21:21 52.54094 -2.18346 27204 ft 473 kts 148°
2026-04-25 21:21 52.51379 -2.15383 27204 ft 473 kts 148°
2026-04-25 21:21 52.48632 -2.12384 27193 ft 474 kts 148°
2026-04-25 21:21 52.45881 -2.09388 27197 ft 474 kts 148°
2026-04-25 21:22 52.43120 -2.06395 26836 ft 475 kts 148°
2026-04-25 21:22 52.40361 -2.03411 26210 ft 476 kts 148°
2026-04-25 21:22 52.37599 -2.00427 25591 ft 475 kts 148°
2026-04-25 21:22 52.34887 -1.97498 24999 ft 470 kts 148°
2026-04-25 21:23 52.32161 -1.94556 24405 ft 467 kts 148°
2026-04-25 21:23 52.29455 -1.91640 23824 ft 463 kts 148°
2026-04-25 21:23 52.26774 -1.88760 23184 ft 458 kts 148°
2026-04-25 21:23 52.24113 -1.85907 22652 ft 455 kts 148°
2026-04-25 21:24 52.21506 -1.83112 22132 ft 451 kts 148°
2026-04-25 21:24 52.18885 -1.80303 21608 ft 448 kts 148°
2026-04-25 21:24 52.16296 -1.77530 21110 ft 444 kts 148°
2026-04-25 21:24 52.14585 -1.75703 20780 ft 442 kts 148°
2026-04-25 21:25 52.12022 -1.72971 20282 ft 438 kts 148°
2026-04-25 21:25 52.09474 -1.70257 19750 ft 435 kts 148°
2026-04-25 21:25 52.06950 -1.67573 19214 ft 432 kts 148°
2026-04-25 21:25 52.04445 -1.64912 18704 ft 429 kts 148°
2026-04-25 21:26 52.01957 -1.62270 18255 ft 426 kts 148°
2026-04-25 21:26 51.99484 -1.59647 17828 ft 423 kts 148°
2026-04-25 21:26 51.97027 -1.57049 17404 ft 419 kts 148°
2026-04-25 21:26 51.94619 -1.54505 16998 ft 416 kts 148°
2026-04-25 21:27 51.92204 -1.51955 16586 ft 412 kts 148°
2026-04-25 21:27 51.89807 -1.49425 16191 ft 409 kts 148°
2026-04-25 21:27 51.87428 -1.46920 15786 ft 406 kts 148°
2026-04-25 21:27 51.85068 -1.44442 15395 ft 403 kts 148°
2026-04-25 21:28 51.82715 -1.41972 15216 ft 401 kts 148°
2026-04-25 21:28 51.80369 -1.39512 15251 ft 402 kts 148°
2026-04-25 21:28 51.78019 -1.37055 15248 ft 402 kts 148°
2026-04-25 21:28 51.75670 -1.34605 15248 ft 402 kts 148°
2026-04-25 21:29 51.73341 -1.32176 15244 ft 402 kts 148°
2026-04-25 21:29 51.70990 -1.29722 15244 ft 402 kts 148°
2026-04-25 21:29 51.68632 -1.27262 15221 ft 402 kts 148°
2026-04-25 21:29 51.66277 -1.24809 15220 ft 402 kts 148°
2026-04-25 21:30 51.63923 -1.22362 15220 ft 402 kts 148°
2026-04-25 21:30 51.61598 -1.19951 15220 ft 402 kts 148°
2026-04-25 21:30 51.59240 -1.17509 15220 ft 402 kts 148°
2026-04-25 21:30 51.57649 -1.15866 15220 ft 402 kts 148°
2026-04-25 21:31 51.54525 -1.12643 15223 ft 402 kts 148°
2026-04-25 21:31 51.52162 -1.10200 15220 ft 402 kts 148°
2026-04-25 21:31 51.49805 -1.07764 15221 ft 402 kts 148°
2026-04-25 21:31 51.47451 -1.05332 15223 ft 402 kts 148°
2026-04-25 21:32 51.45098 -1.02903 15224 ft 402 kts 148°
2026-04-25 21:32 51.42741 -1.00477 15228 ft 402 kts 148°
2026-04-25 21:32 51.40390 -0.98064 15226 ft 397 kts 148°
2026-04-25 21:32 51.38141 -0.95757 15227 ft 379 kts 148°
2026-04-25 21:33 51.36009 -0.93573 15242 ft 363 kts 148°
2026-04-25 21:33 51.33925 -0.91446 15242 ft 347 kts 148°
2026-04-25 21:33 51.31920 -0.89405 15240 ft 333 kts 148°
2026-04-25 21:33 51.30014 -0.87469 15246 ft 326 kts 148°
2026-04-25 21:34 51.28101 -0.85525 15247 ft 325 kts 148°
2026-04-25 21:34 51.26193 -0.83580 15248 ft 324 kts 148°
2026-04-25 21:34 51.24297 -0.81643 15246 ft 324 kts 148°
2026-04-25 21:34 51.22390 -0.79696 15247 ft 324 kts 148°
2026-04-25 21:35 51.20483 -0.77756 15245 ft 324 kts 148°
2026-04-25 21:35 51.18606 -0.75850 15213 ft 325 kts 148°
2026-04-25 21:35 51.16679 -0.73895 14691 ft 331 kts 148°
2026-04-25 21:35 51.14715 -0.71908 14162 ft 335 kts 148°
2026-04-25 21:36 51.12731 -0.69905 13594 ft 339 kts 148°
2026-04-25 21:36 51.10730 -0.67885 13015 ft 341 kts 148°
2026-04-25 21:36 51.08740 -0.65875 12454 ft 343 kts 148°
2026-04-25 21:36 51.06733 -0.63798 11894 ft 345 kts 143°
2026-04-25 21:37 51.05057 -0.61088 11344 ft 345 kts 124°
2026-04-25 21:37 51.04259 -0.58909 10988 ft 345 kts 116°
2026-04-25 21:37 51.02835 -0.54339 10274 ft 341 kts 116°
2026-04-25 21:37 51.01801 -0.51025 9724 ft 327 kts 116°
2026-04-25 21:38 51.00818 -0.47884 9206 ft 315 kts 116°
2026-04-25 21:38 50.99855 -0.44823 8692 ft 303 kts 116°
2026-04-25 21:38 50.98932 -0.41891 8315 ft 293 kts 116°
2026-04-25 21:38 50.98033 -0.39035 8092 ft 287 kts 116°
2026-04-25 21:39 50.97137 -0.36196 7694 ft 286 kts 116°
2026-04-25 21:39 50.96450 -0.33255 7325 ft 283 kts 96°
2026-04-25 21:39 50.96641 -0.30267 7237 ft 276 kts 69°
2026-04-25 21:39 50.97675 -0.27719 7021 ft 275 kts 42°
2026-04-25 21:40 50.99330 -0.26234 6805 ft 275 kts 14°
2026-04-25 21:40 51.01229 -0.26137 6534 ft 275 kts 347°
2026-04-25 21:40 51.02934 -0.27451 6223 ft 274 kts 319°
2026-04-25 21:40 51.04037 -0.29827 5897 ft 273 kts 291°
2026-04-25 21:41 51.04393 -0.32777 5516 ft 273 kts 274°
2026-04-25 21:41 51.04462 -0.35799 5107 ft 273 kts 271°
2026-04-25 21:41 51.04493 -0.38786 4649 ft 274 kts 271°
2026-04-25 21:41 51.04517 -0.41817 4186 ft 274 kts 271°
2026-04-25 21:42 51.04539 -0.44846 3733 ft 274 kts 271°
2026-04-25 21:42 51.04658 -0.47861 3268 ft 273 kts 284°
2026-04-25 21:42 51.05514 -0.50467 3020 ft 261 kts 315°
2026-04-25 21:42 51.06951 -0.51923 3006 ft 240 kts 346°
2026-04-25 21:43 51.08550 -0.51965 3011 ft 229 kts 18°
2026-04-25 21:43 51.09889 -0.50740 3007 ft 215 kts 47°
2026-04-25 21:43 51.10643 -0.48807 3008 ft 202 kts 73°
2026-04-25 21:43 51.10958 -0.46672 3042 ft 192 kts 77°
2026-04-25 21:44 51.11236 -0.44692 2994 ft 174 kts 77°
2026-04-25 21:44 51.11490 -0.42879 2968 ft 167 kts 77°
2026-04-25 21:44 51.11990 -0.39322 2569 ft 163 kts 78°
2026-04-25 21:45 51.12236 -0.37565 2360 ft 162 kts 78°
2026-04-25 21:45 51.12399 -0.36402 2217 ft 162 kts 78°
2026-04-25 21:45 51.12727 -0.34053 1919 ft 162 kts 78°
2026-04-25 21:45 51.12971 -0.32303 1711 ft 162 kts 78°
2026-04-25 21:46 51.13212 -0.30576 1486 ft 161 kts 78°
2026-04-25 21:46 51.13454 -0.28836 1266 ft 158 kts 78°
2026-04-25 21:46 51.13683 -0.27190 1054 ft 148 kts 78°
2026-04-25 21:46 51.13907 -0.25629 835 ft 145 kts 77°
2026-04-25 21:47 51.14125 -0.24071 626 ft 143 kts 79°
2026-04-25 21:47 51.14338 -0.22500 452 ft 143 kts 78°
2026-04-25 21:47 51.14548 -0.20966 282 ft 143 kts 78°
2026-04-25 21:47 51.14746 -0.19507 207 ft 116 kts 77°
2026-04-25 21:48 51.14887 -0.18510 213 ft 64 kts 77°
2026-04-25 21:48 51.14961 -0.18029 208 ft 35 kts 67°
2026-04-25 21:48 51.15067 -0.17779 205 ft 17 kts 48°
2026-04-25 21:48 51.15117 -0.17758 205 ft 0 kts 355°
2026-04-25 21:49 51.15119 -0.17758 205 ft 4 kts 354°
2026-04-25 21:49 51.15189 -0.17770 214 ft 9 kts 353°
2026-04-25 21:49 51.15253 -0.17755 209 ft 8 kts 67°
2026-04-25 21:49 51.15278 -0.17614 206 ft 16 kts 77°
2026-04-25 21:50 51.15300 -0.17443 207 ft 17 kts 79°
2026-04-25 21:50 51.15394 -0.17383 211 ft 16 kts 347°
2026-04-25 21:50 51.15505 -0.17423 204 ft 18 kts 346°
2026-04-25 21:50 51.15533 -0.17528 204 ft 17 kts 261°
2026-04-25 21:51 51.15526 -0.17657 205 ft 2 kts 323°
2026-04-25 21:51 51.15576 -0.17679 204 ft 4 kts 348°
2026-04-25 21:51 51.15584 -0.17682 214 ft 0 kts 348°